Flag for South Africa Weather past 2 weeks in Port Elizabeth, South Africa

Now
55 °F

Passing clouds.


Feels Like: 54 °F
Forecast: 47 / 68 °F
Wind: 7 mph from West

Location: Port Elizabeth Airport

Current Time: Sep 20, 2014 at 8:51:59 AM

Latest Report: Sep 20, 2014 at 8:00 AM


Visibility: N/A

Pressure: 30.39 "Hg

Humidity: 59%

Dew point: 41 °F

Location of Port ElizabethLocation

Historic Weather in Port Elizabeth — Graph

°F

Port Elizabeth temperature yesterday

Maximum temperature yesterday: 63 °F (at 1:00 PM)
Minimum temperature yesterday: 50 °F (at 6:00 AM)
Average temperature yesterday: 57 °F

Past Weeks' High & Low Weather Summary

 TemperatureHumidityPressure
High91 °F (Sep 5, 11:00 AM)94% (Sep 6, 5:00 AM)30.39 "Hg (Sep 6, 5:00 AM)
Low48 °F (Sep 13, 12:00 AM)18% (Sep 5, 11:00 AM)29.56 "Hg (Sep 17, 4:00 PM)
Average62 °F74%30.06 "Hg
* Reported Sep 5 7:00 AM — Sep 20 7:00 AM, Port Elizabeth, Weather by CustomWeather, © 2014

Note: Actual official high and low records may vary slightly from our data, if they occured in-between our weather recording intervals... More about our weather records

Advertising

Port Elizabeth weather history for previous 24 hours

 ConditionsComfort  
Time TempWeatherWind HumidityBarometerVisibility
7:00 AM
Sep 20
50 °FSunny.7 mph67%30.39 "Hg10 mi
6:00 AM52 °FPartly sunny.8 mph58%30.39 "HgN/A
5:00 AM52 °FClear.6 mph62%30.39 "Hg10 mi
4:00 AM52 °FClear.8 mph67%30.36 "Hg10 mi
3:00 AM55 °FClear.12 mph63%30.36 "Hg10 mi
2:00 AM55 °FPassing clouds.16 mph63%30.39 "HgN/A
1:00 AM54 °FPassing clouds.10 mph67%30.39 "HgN/A
12:00 AM54 °FPassing clouds.7 mph67%30.39 "HgN/A
11:00 PM
Sep 19
54 °FPassing clouds.9 mph72%30.39 "HgN/A
10:00 PM55 °FClear.16 mph63%30.39 "Hg10 mi
9:00 PM55 °FClear.15 mph63%30.36 "Hg10 mi
8:00 PM55 °FClear.20 mph63%30.33 "Hg10 mi
7:00 PM57 °FClear.18 mph59%30.33 "Hg10 mi
6:00 PM57 °FPassing clouds.22 mph59%30.30 "HgN/A
5:00 PM59 °FPassing clouds.23 mph51%30.27 "HgN/A
4:55 PM59 °FPassing clouds.24 mph51%30.27 "HgN/A
4:00 PM57 °FPartly sunny.26 mph67%30.27 "HgN/A
3:00 PM63 °FScattered clouds.30 mph52%30.24 "HgN/A
2:00 PM61 °FPassing clouds.32 mph55%30.24 "HgN/A
1:00 PM63 °FPassing clouds.31 mph49%30.21 "HgN/A
12:00 PM61 °FScattered clouds.37 mph52%30.21 "HgN/A
11:00 AM59 °FPartly sunny.33 mph51%30.21 "HgN/A
10:00 AM59 °FSunny.25 mph45%30.21 "Hg10 mi
9:00 AM59 °FPassing clouds.26 mph42%30.18 "HgN/A
8:00 AM57 °FPassing clouds.22 mph44%30.15 "HgN/A
Weather by CustomWeather, © 2014

See weather overviewHow to use our weather pages